Back to catalog

Curium One

AliveAmateur RadioVLEO
NORAD 60242·PAYLOAD·🇩🇪 Germany

Launched Jul 9, 2024 from Guiana Space Centre

Loading…

Next Passes (next 24 hours)

TLE

FreshSource: Space-Track

Epoch: Sep 14, 2026, 09:15 UTC

1 60242U 24128H   26257.38571247  .00005583  00000-0  31908-3 0  9995
2 60242  61.9767 249.5688 0026650 149.3918 210.8740 15.13614223119953

Track Curium One in real time with AllMySat

Download on the App Store